WS Maaseik 1 Meer informatie WS Maaseik 1


WS Maaseik 2 Meer informatie WS Maaseik 2


Regen radar Meer informatie rain snow radar


Bezoek onze andere website:

Vorige versie
weerstation Maaseik


Bezoek ook eens deze sites:

Weerstation Geleen



Het weer levert geen direct gevaar op.    Er zijn geen waarschuwingen afgegeven.

15 daagse weersverwachting Lustenau (AT)

  • Overzicht
  • Per uur
  • 15 dagen
  • Extra
  • Vergelijk
  • Kaarten
  • Dagkaart
  • Meer »
  • Info
  • Statistieken
  • Directe link
    Temp 6h Neerslag Wind  
 06:07     20:49    Daglengte: 14:42 Vandaag
20:00
17°
9.1 mm
2
 06:08     20:47    Daglengte: 14:39 Morgen
02:00
15°
7.2 mm
2
08:00
15°
 
2
14:00
20°
4.0 mm
3
20:00
18°
 
2
 06:09     20:46    Daglengte: 14:37 Zaterdag 07 Aug
02:00
15°
 
1
08:00
16°
 
2
14:00
22°
 
3
20:00
16°
22.6 mm
2
 06:10     20:44    Daglengte: 14:34 Zondag 08 Aug
02:00
14°
104.6 mm
3
08:00
14°
102.1 mm
2
Locatie info
Region: Vorarlberg
Latitude: 47.4263°N
Longitude: 9.6586°E
405 masl
Postcode: 6890
Temp/Neerslag /Baro Onweer/Dauwpunt
    Temp Baro 1h Neerslag Dauwpunt Wind UV Bewolking  
 06:07     20:49    Daglengte: 14:42 Vandaag
15:00
19°
1010.7 hPa
48%
16.1°
1
Windvlaag: -3.2 m/s
69%
16:00
19°
1010.4 hPa 2.6 mm
82%
16.5°
2
Windvlaag: -2.5 m/s
61%
17:00
19°
1010.3 hPa
82%
15.6°
1
Windvlaag: -3.8 m/s
60%
18:00
19°
1010.4 hPa 3.4 mm
82%
15.0°
2
Windvlaag: -3.2 m/s
48%
19:00
18°
1010.4 hPa 3.0 mm
82%
14.2°
2
Windvlaag: -2.4 m/s
63%
20:00
17°
1010.7 hPa
68%
13.9°
2
Windvlaag: -2.6 m/s
54%
21:00
16°
1011.0 hPa
20%
14.6°
1
Windvlaag: 1.6 m/s
13%
22:00
16°
1011.4 hPa
75%
14.7°
1
Windvlaag: 0.8 m/s
30%
23:00
15°
1012.0 hPa 3.6 mm
73%
14.0°
1
Windvlaag: 1.7 m/s
32%
 06:08     20:47    Daglengte: 14:39 Morgen
00:00
15°
1011.6 hPa 3.6 mm
69%
12.2°
2
Windvlaag: 1.7 m/s
28%
01:00
15°
1011.5 hPa
26%
12.0°
2
Windvlaag: 2.6 m/s
52%
02:00
15°
1010.9 hPa
24%
11.7°
2
Windvlaag: 2.8 m/s
33%
03:00
15°
1010.2 hPa
18%
11.7°
2
Windvlaag: 2.8 m/s
36%
04:00
14°
1010.0 hPa
16%
11.6°
2
Windvlaag: 3.3 m/s
84%
05:00
14°
1009.5 hPa
82%
11.9°
2
Windvlaag: 3.4 m/s
85%
06:00
15°
1009.4 hPa
82%
11.9°
2
Windvlaag: 3.5 m/s
77%
07:00
15°
1009.9 hPa
82%
11.9°
2
Windvlaag: 3.9 m/s
81%
08:00
15°
1010.0 hPa
82%
12.4°
2
Windvlaag: 2.8 m/s
75%
09:00
16°
1010.3 hPa
72%
13.1°
3
Windvlaag: 0.3 m/s
68%
10:00
17°
1010.7 hPa
25%
13.4°
2
Windvlaag: -1 m/s
65%
11:00
17°
1011.1 hPa 4.0 mm
60%
14.5°
3
Windvlaag: 3 m/s
61%
12:00
18°
1011.2 hPa
53%
14.6°
3
Windvlaag: 3.4 m/s
26%
13:00
19°
1011.0 hPa
19%
15.5°
4
Windvlaag: 1.3 m/s
9%
14:00
20°
1010.9 hPa
56%
15.3°
3
Windvlaag: 1.4 m/s
17%
15:00
20°
1010.7 hPa
57%
15.8°
3
Windvlaag: 1.2 m/s
16%
16:00
20°
1010.5 hPa
51%
15.5°
3
Windvlaag: 1.1 m/s
26%
17:00
20°
1010.4 hPa
15%
15.7°
3
Windvlaag: -0.1 m/s
25%
18:00
19°
1010.5 hPa
15%
15.2°
2
Windvlaag: -2.9 m/s
56%
19:00
19°
1010.5 hPa
19%
14.9°
2
Windvlaag: -3.5 m/s
48%
20:00
18°
1010.9 hPa
18%
14.4°
2
Windvlaag: -2.7 m/s
32%
21:00
17°
1011.3 hPa
20%
13.8°
1
Windvlaag: -1.1 m/s
37%
22:00
17°
1011.7 hPa
16%
13.0°
2
Windvlaag: -0.6 m/s
41%
23:00
16°
1011.8 hPa
14%
13.0°
1
Windvlaag: 0.5 m/s
30%
 06:09     20:46    Daglengte: 14:37 Zaterdag 07 Aug
00:00
16°
1011.5 hPa
14%
12.2°
1
Windvlaag: 1.1 m/s
12%
01:00
16°
1011.2 hPa
14%
11.7°
1
Windvlaag: 1.6 m/s
29%
02:00
15°
1010.8 hPa
14%
11.6°
1
Windvlaag: 2.5 m/s
40%
03:00
15°
1010.4 hPa
14%
11.8°
2
Windvlaag: 2.5 m/s
16%
04:00
14°
1010.2 hPa
14%
11.7°
2
Windvlaag: 2.7 m/s
11%
05:00
14°
1009.7 hPa
14%
11.7°
2
Windvlaag: 3.1 m/s
12%
06:00
14°
1009.6 hPa
14%
11.6°
2
Windvlaag: 3.1 m/s
24%
07:00
14°
1009.5 hPa
14%
11.3°
2
Windvlaag: 3.2 m/s
30%
08:00
16°
1008.8 hPa
14%
12.6°
2
Windvlaag: 3.3 m/s
33%
09:00
19°
1008.3 hPa
14%
13.2°
1
Windvlaag: 2.7 m/s
31%
10:00
20°
1007.8 hPa
14%
13.2°
1
Windvlaag: -1.1 m/s
50%
11:00
21°
1006.3 hPa
32%
11.0°
2
Windvlaag: -3 m/s
65%
12:00
22°
1005.6 hPa
26%
11.5°
3
Windvlaag: -3.7 m/s
72%
13:00
22°
1005.2 hPa
21%
12.3°
3
Windvlaag: -4.9 m/s
66%
14:00
22°
1005.2 hPa
24%
12.5°
3
Windvlaag: -5.3 m/s
54%
15:00
22°
1005.4 hPa
27%
11.5°
2
Windvlaag: -3.4 m/s
91%
16:00
21°
1005.4 hPa
27%
18.9°
2
Windvlaag: -1.2 m/s
74%
17:00
21°
1005.1 hPa
40%
19.6°
3
Windvlaag: -1.6 m/s
100%
18:00
19°
1005.6 hPa
49%
18.5°
3
Windvlaag: -1.4 m/s
100%
19:00
18°
1006.2 hPa 13.0 mm
97%
17.1°
2
Windvlaag: -2.1 m/s
100%
20:00
16°
1006.6 hPa 9.6 mm
95%
15.6°
2
Windvlaag: -0.7 m/s
100%
21:00
15°
1009.0 hPa 14.3 mm
98%
15.0°
3
Windvlaag: -3.8 m/s
100%
22:00
15°
1011.1 hPa 18.6 mm
100%
14.4°
3
Windvlaag: -0.6 m/s
100%
23:00
15°
1011.6 hPa 20.0 mm
100%
14.0°
3
Windvlaag: 8 m/s
99%
 06:10     20:44    Daglengte: 14:34 Zondag 08 Aug
00:00
15°
1011.4 hPa 17.3 mm
100%
12.2°
3
Windvlaag: 7.6 m/s
95%
01:00
15°
1011.9 hPa 17.2 mm
100%
10.5°
2
Windvlaag: 5.2 m/s
82%
02:00
14°
1011.9 hPa 17.1 mm
100%
10.2°
3
Windvlaag: 2.5 m/s
93%
03:00
14°
1012.2 hPa 17.0 mm
100%
9.5°
3
Windvlaag: 2.7 m/s
97%
04:00
14°
1012.3 hPa 17.8 mm
100%
9.2°
2
Windvlaag: 3.9 m/s
97%
05:00
14°
1012.5 hPa 17.2 mm
99%
10.5°
2
Windvlaag: 4.6 m/s
92%
06:00
14°
1013.0 hPa 28.5 mm
80%
10.7°
2
Windvlaag: 4.1 m/s
97%
07:00
14°
1013.5 hPa 27.9 mm
71%
10.5°
3
Windvlaag: 4.3 m/s
89%
08:00
14°
1014.1 hPa 26.9 mm
25%
10.9°
2
Windvlaag: 4.1 m/s
87%
09:00
15°
1014.8 hPa   -36.3°
0
Windvlaag: 0 m/s
95%
Temp/Neerslag /Baro Onweer/Dauwpunt
    Temp Baro Neerslag Dauwpunt Wind Bewolking  
 06:07     20:49    Daglengte: 14:42 Vandaag
17:00
19°
1010.3 hPa 2.6 mm 15.6°
1
60%
20:00
17°
1010.7 hPa 6.4 mm 13.9°
2
54%
23:00
15°
1012.0 hPa 3.6 mm 14.0°
1
32%
 06:08     20:47    Daglengte: 14:39 Morgen
02:00
15°
1010.9 hPa 3.6 mm 11.7°
2
33%
05:00
14°
1009.5 hPa   11.9°
2
85%
08:00
15°
1010.0 hPa   12.4°
2
75%
11:00
17°
1011.1 hPa 4.0 mm 14.5°
3
61%
14:00
20°
1010.9 hPa   15.3°
3
17%
17:00
20°
1010.4 hPa   15.7°
3
25%
20:00
18°
1010.9 hPa   14.4°
2
32%
23:00
16°
1011.8 hPa   13.0°
1
30%
 06:09     20:46    Daglengte: 14:37 Zaterdag 07 Aug
02:00
15°
1010.8 hPa   11.6°
1
40%
05:00
14°
1009.7 hPa   11.7°
2
12%
08:00
16°
1008.8 hPa   12.6°
2
33%
11:00
21°
1006.3 hPa   11.0°
2
65%
14:00
22°
1005.2 hPa   12.5°
3
54%
17:00
21°
1005.1 hPa   19.6°
3
100%
20:00
16°
1006.6 hPa 22.6 mm 15.6°
2
100%
23:00
15°
1011.6 hPa 53.0 mm 14.0°
3
99%
 06:10     20:44    Daglengte: 14:34 Zondag 08 Aug
02:00
14°
1011.9 hPa 51.6 mm 10.2°
3
93%
05:00
14°
1012.5 hPa 52.1 mm 10.5°
2
92%
08:00
14°
1014.1 hPa 83.3 mm 10.9°
2
87%
11:00
16°
1015.5 hPa   15.0°
1
88%
14:00
17°
1015.9 hPa   16.0°
2
72%
17:00
15°
1018.8 hPa 57.7 mm 13.8°
2
1%
20:00
16°
1019.4 hPa 57.8 mm 13.8°
1
1%
23:00
13°
1021.6 hPa 57.8 mm 11.5°
2
0%
 06:12     20:42    Daglengte: 14:30 Maandag 09 Aug
02:00
12°
1021.6 hPa 57.8 mm 10.8°
2
0%
05:00
12°
1021.1 hPa 57.8 mm 10.3°
2
1%
08:00
14°
1021.2 hPa 57.8 mm 11.5°
1
1%
11:00
17°
1021.9 hPa 57.8 mm 12.4°
1
1%
14:00
21°
1021.5 hPa 57.8 mm 11.0°
2
1%
17:00
21°
1021.4 hPa 57.9 mm 12.4°
1
0%
20:00
18°
1021.9 hPa 57.9 mm 13.6°
1
0%
23:00
16°
1024.0 hPa 57.9 mm 12.4°
1
0%
 06:13     20:41    Daglengte: 14:28 Dinsdag 10 Aug
02:00
14°
1024.6 hPa 57.9 mm 12.0°
1
0%
05:00
13°
1024.3 hPa 57.9 mm 11.6°
1
0%
08:00
16°
1024.1 hPa 57.9 mm 12.1°
1
0%
11:00
20°
1023.2 hPa 57.9 mm 12.9°
2
0%
14:00
22°
1021.9 hPa 57.9 mm 12.3°
2
0%
17:00
23°
1021.1 hPa 57.9 mm 12.9°
1
0%
20:00
19°
1020.9 hPa 57.9 mm 14.2°
1
0%
23:00
15°
1022.1 hPa 57.9 mm 12.8°
2
0%
 06:14     20:39    Daglengte: 14:25 Woensdag 11 Aug
02:00
14°
1021.5 hPa 57.9 mm 12.4°
1
0%
05:00
14°
1020.8 hPa 57.9 mm 12.1°
1
0%
08:00
17°
1020.3 hPa 57.9 mm 13.3°
0
0%
11:00
22°
1018.7 hPa 57.9 mm 14.9°
1
1%
14:00
24°
1017.6 hPa 57.9 mm 15.2°
2
0%
17:00
25°
1016.5 hPa 57.9 mm 14.7°
1
1%
20:00
22°
1017.0 hPa 57.9 mm 17.2°
1
1%
23:00
19°
1017.9 hPa 57.9 mm 14.9°
2
0%
 06:16     20:38    Daglengte: 14:22 Donderdag 12 Aug
02:00
18°
1017.3 hPa 57.9 mm 12.1°
2
0%
05:00
18°
1015.9 hPa 57.9 mm 11.5°
2
0%
08:00
18°
1017.0 hPa 58.0 mm 14.6°
1
0%
11:00
22°
1018.2 hPa 58.8 mm 15.7°
2
1%
14:00
21°
1018.5 hPa 118.7 mm 18.5°
2
1%
20:00
20°
1019.5 hPa 123.5 mm 18.8°
3
1%
 06:17     20:36    Daglengte: 14:19 Vrijdag 13 Aug
02:00
17°
1022.8 hPa 132.5 mm 16.2°
1
1%
08:00
16°
1023.8 hPa 135.1 mm 14.4°
1
1%
14:00
21°
1023.1 hPa 135.3 mm 11.6°
2
0%
20:00
18°
1023.0 hPa 135.4 mm 14.2°
2
0%
 06:18     20:34    Daglengte: 14:16 Zaterdag 14 Aug
02:00
13°
1024.5 hPa 135.4 mm 12.1°
1
0%
08:00
14°
1023.4 hPa 135.4 mm 11.8°
0
0%
14:00
23°
1020.6 hPa 135.4 mm 12.4°
2
0%
20:00
19°
1019.9 hPa 135.4 mm 15.6°
2
0%
 06:20     20:32    Daglengte: 14:12 Zondag 15 Aug
02:00
15°
1020.1 hPa 135.4 mm 13.7°
1
0%
08:00
17°
1018.2 hPa 135.4 mm 14.1°
0
1%
14:00
23°
1015.2 hPa 2.1 mm 15.4°
2
48%
20:00
19°
1015.6 hPa 1.4 mm 16.3°
1
51%
 06:21     20:31    Daglengte: 14:10 Maandag 16 Aug
02:00
15°
1017.0 hPa 1.3 mm 14.1°
1
55%
08:00
16°
1016.9 hPa 1.2 mm 14.6°
1
59%
14:00
23°
1016.1 hPa 1.3 mm 15.5°
2
54%
20:00
19°
1017.1 hPa 1.3 mm 16.2°
1
49%
 06:22     20:29    Daglengte: 14:07 Dinsdag 17 Aug
02:00
15°
1018.9 hPa 0.4 mm 13.9°
1
56%
08:00
16°
1019.1 hPa 1.0 mm 14.4°
1
57%
14:00
23°
1017.8 hPa 1.3 mm 15.5°
2
52%
20:00
19°
1018.5 hPa 1.5 mm 16.1°
1
48%
 06:24     20:27    Daglengte: 14:03 Woensdag 18 Aug
02:00
15°
1019.6 hPa 1.3 mm 13.8°
1
43%
08:00
16°
1019.4 hPa 0.8 mm 14.2°
1
43%
14:00
23°
1017.5 hPa 0.7 mm 15.6°
2
46%
20:00
19°
1017.7 hPa 2.1 mm 16.3°
0
54%
 06:25     20:25    Daglengte: 14:00 Donderdag 19 Aug
02:00
15°
1018.9 hPa 2.3 mm 14.0°
1
57%
08:00
16°
1018.3 hPa 0.3 mm 14.3°
1
60%
14:00
23°
1016.5 hPa 1.3 mm 15.6°
2
50%
20:00
18°
1016.9 hPa 1.8 mm 16.1°
0
46%
 06:26     20:24    Daglengte: 13:58 Vrijdag 20 Aug
02:00
15°
1018.0 hPa 1.0 mm 13.5°
1
51%
08:00
16°
1017.6 hPa 1.0 mm 13.9°
1
47%
14:00
23°
1016.0 hPa 1.1 mm 15.0°
2
40%
  CAPE Lifted Index Hail Supercell Tornado SRH 3km CL BTM PRES CL TOP PRES Swiss DWD icon SMHI TS
 06:07     20:49    Daglengte: 14:42 Vandaag
15:00 582 J/kg -3.4 K 0 % 0 % 0 % 0 m²/s² 0 0 -1.93 80
16:00 196 J/kg -1.2 K 0 % 0 % 0 % 0 m²/s² 0 0 -1.11 80
17:00 435 J/kg -2.4 K 0 % 0 % 0 % 0 m²/s² 0 0 -1.65 80
18:00 464 J/kg -2.1 K 0 % 0 % 0 % 0 m²/s² 0 0 -1.05 80
19:00 226 J/kg -0.5 K 0 % 0 % 0 % 0 m²/s² 0 0 0.01 61
20:00 1 J/kg 0.6 K 0 % 0 % 0 % 0 m²/s² 0 0 0.81 2
21:00 75 J/kg -1.2 K 0 % 0 % 0 % 0 m²/s² 0 0 -0.63 2
22:00 121 J/kg -1.1 K 0 % 0 % 0 % 0 m²/s² 0 0 -0.8 2
23:00 119 J/kg -0.9 K 0 % 0 % 0 % 0 m²/s² 0 0 -0.15 80
 06:08     20:47    Daglengte: 14:39 Morgen
00:00 80 J/kg -1.0 K 0 % 0 % 0 % 0 m²/s² 0 0 -0.19 3
01:00 35 J/kg 0.2 K 0 % 0 % 0 % 0 m²/s² 0 0 1.4 3
02:00 2 J/kg 1.0 K 0 % 0 % 0 % 0 m²/s² 0 0 2.89 3
03:00 0 J/kg 1.6 K 0 % 0 % 0 % 0 m²/s² 0 0 3.55 3
04:00 0 J/kg 1.8 K 0 % 0 % 0 % 0 m²/s² 0 0 3.09 3
05:00 0 J/kg 1.1 K 0 % 0 % 0 % 0 m²/s² 0 0 2.24 61
06:00 0 J/kg 0.2 K 0 % 0 % 0 % 0 m²/s² 0 0 0.29 61
07:00 0 J/kg 0.1 K 0 % 0 % 0 % 0 m²/s² 0 0 1.09 80
08:00 0 J/kg -0.7 K 0 % 0 % 0 % 0 m²/s² 0 0 -0.43 80
09:00 35 J/kg -0.8 K 0 % 0 % 0 % 0 m²/s² 0 0 -0.5 3
10:00 330 J/kg -1.5 K 0 % 0 % 0 % 0 m²/s² 0 0 0.39 3
11:00 393 J/kg -1.8 K 0 % 0 % 0 % 0 m²/s² 0 0 -0.6 3
12:00 192 J/kg -0.2 K 0 % 0 % 0 % 0 m²/s² 0 0 1.87 2
13:00 184 J/kg -0.1 K 0 % 0 % 0 % 0 m²/s² 0 0 2.96 2
14:00 161 J/kg -0.2 K 0 % 0 % 0 % 0 m²/s² 0 0 3.58 3
15:00 74 J/kg 0.3 K 0 % 0 % 0 % 0 m²/s² 0 0 4.74 3
16:00 82 J/kg 0.0 K 0 % 0 % 0 % 0 m²/s² 0 0 4.92 3
17:00 81 J/kg 0.0 K 0 % 0 % 0 % 0 m²/s² 0 0 4.68 2
18:00 55 J/kg 0.2 K 0 % 0 % 0 % 0 m²/s² 0 0 4.91 3
19:00 51 J/kg 0.1 K 0 % 0 % 0 % 0 m²/s² 0 0 4.81 3
20:00 53 J/kg 0.4 K 0 % 0 % 0 % 0 m²/s² 0 0 5.11 3
21:00 4 J/kg 0.9 K 0 % 0 % 0 % 0 m²/s² 0 0 5.37 3
22:00 0 J/kg 1.8 K 0 % 0 % 0 % 0 m²/s² 0 0 5.61 3
23:00 0 J/kg 2.5 K 0 % 0 % 0 % 0 m²/s² 0 0 5.86 3
 06:09     20:46    Daglengte: 14:37 Zaterdag 07 Aug
00:00 0 J/kg 2.9 K 0 % 0 % 0 % 0 m²/s² 0 0 6.26 3
01:00 0 J/kg 2.9 K 0 % 0 % 0 % 0 m²/s² 0 0 5.99 3
02:00 0 J/kg 3.2 K 0 % 0 % 0 % 0 m²/s² 0 0 5.75 3
03:00 0 J/kg 3.4 K 0 % 0 % 0 % 0 m²/s² 0 0 5.86 2
04:00 0 J/kg 3.7 K 0 % 0 % 0 % 0 m²/s² 0 0 6.31 2
05:00 0 J/kg 3.6 K 0 % 0 % 0 % 0 m²/s² 0 0 6.15 2
06:00 0 J/kg 3.4 K 0 % 0 % 0 % 0 m²/s² 0 0 5.71 2
07:00 0 J/kg 3.6 K 0 % 0 % 0 % 0 m²/s² 0 0 6 3
08:00 0 J/kg 4.0 K 0 % 0 % 0 % 0 m²/s² 0 0 6.4 3
09:00 0 J/kg 3.3 K 0 % 0 % 0 % 0 m²/s² 0 0 5.7 2
10:00 0 J/kg 2.0 K 0 % 0 % 0 % 0 m²/s² 0 0 4.55 3
11:00 0 J/kg 1.1 K 0 % 0 % 0 % 0 m²/s² 0 0 3.83 3
12:00 11 J/kg -0.1 K 0 % 0 % 0 % 0 m²/s² 0 0 1.97 3
13:00 8 J/kg -0.2 K 0 % 0 % 0 % 0 m²/s² 0 0 1.24 3
14:00 28 J/kg 0.4 K 0 % 0 % 0 % 0 m²/s² 0 0 1.27 3
15:00 98 J/kg -0.2 K 0 % 0 % 0 % 0 m²/s² 0 0 -0.17 3
16:00 0 J/kg -0.4 K 0 % 0 % 0 % 0 m²/s² 0 0 -0.4 3
17:00 35 J/kg 0.6 K 0 % 0 % 0 % 0 m²/s² 0 0 0.6 3
18:00 24 J/kg 3.7 K 0 % 0 % 0 % 0 m²/s² 0 0 3.91 3
19:00 21 J/kg 4.9 K 0 % 0 % 0 % 0 m²/s² 0 0 4.93 3
20:00 3 J/kg 4.2 K 0 % 0 % 0 % 0 m²/s² 0 0 4.2 3
21:00 0 J/kg 4.6 K 0 % 0 % 0 % 0 m²/s² 0 0 4.6 3
22:00 0 J/kg 3.3 K 0 % 0 % 0 % 0 m²/s² 0 0 3.3 63
23:00 0 J/kg 4.7 K 0 % 0 % 0 % 0 m²/s² 0 0 4.73 63
 06:10     20:44    Daglengte: 14:34 Zondag 08 Aug
00:00 3 J/kg 4.2 K 0 % 0 % 0 % 0 m²/s² 0 0 4.5 61
01:00 0 J/kg 3.1 K 0 % 0 % 0 % 0 m²/s² 0 0 3.58 63
02:00 0 J/kg 2.4 K 0 % 0 % 0 % 0 m²/s² 0 0 3.21 61
03:00 0 J/kg 2.5 K 0 % 0 % 0 % 0 m²/s² 0 0 3.91 61
04:00 0 J/kg 2.7 K 0 % 0 % 0 % 0 m²/s² 0 0 4.5 80
05:00 0 J/kg 1.8 K 0 % 0 % 0 % 0 m²/s² 0 0 3.87 3
06:00 4 J/kg 2.3 K 0 % 0 % 0 % 0 m²/s² 0 0 5.06 3
07:00 8 J/kg 2.3 K 0 % 0 % 0 % 0 m²/s² 0 0 5.57 3
08:00 40 J/kg 1.7 K 0 % 0 % 0 % 0 m²/s² 0 0 5.12 3
09:00 0 J/kg 0.0 K 0 % 0 % 0 % 0 m²/s² 0 0 13.83 3
Temp Baro Wind Neerslag
  EWN Forecast EWN WRFDA DWD ICON FMI HIRLAM MET Norway GFS
 06:07     20:49    Daglengte: 14:42 Vandaag
17:00 19.3° 1010.3 hPa 1.3 m/s 2.6 mm 19.4° 1008.7 hPa 0.6 m/s 34.8 mm 18.7° 1010.5 hPa 0.6 m/s 1.6 mm 21.1° 1010.1 hPa 1.5 m/s 0.0 mm 19.2° 1010.2 hPa 2.3 m/s
20:00 17.3° 1010.7 hPa 1.9 m/s 6.4 mm 17.0° 1009.0 hPa 5.2 m/s 42.1 mm 17.2° 1010.6 hPa 0.8 m/s 1.9 mm 18.7° 1010.9 hPa 3.0 m/s 0.0 mm 17.2° 1010.6 hPa 1.9 m/s
23:00 15.3° 1012.0 hPa 1.4 m/s 3.6 mm 16.5° 1009.6 hPa 3.0 m/s 48.8 mm 15.1° 1012.2 hPa 1.2 m/s 0.7 mm 16.3° 1012.7 hPa 1.5 m/s 0.0 mm 15.0° 1012.0 hPa 2.0 m/s
 06:08     20:47    Daglengte: 14:39 Morgen
02:00 14.7° 1010.9 hPa 1.9 m/s 3.6 mm 15.6° 1008.9 hPa 3.8 m/s 51.9 mm 14.4° 1010.7 hPa 1.3 m/s 0.2 mm 16.0° 1011.9 hPa 1.7 m/s 0.0 mm 14.2° 1011.3 hPa 2.3 m/s
05:00 14.4° 1009.5 hPa 2.2 m/s 0.0 mm 14.8° 1007.6 hPa 3.9 m/s 52.0 mm 14.3° 1009.6 hPa 1.5 m/s 1.2 mm 14.4° 1010.6 hPa 2.1 m/s 0.0 mm 13.9° 1010.4 hPa 2.6 m/s
08:00 15.4° 1010.0 hPa 2.0 m/s 0.0 mm 17.8° 1007.1 hPa 3.4 m/s 52.3 mm 14.9° 1010.4 hPa 2.0 m/s 1.0 mm 15.0° 1010.3 hPa 2.6 m/s 0.0 mm 16.1° 1010.1 hPa 1.6 m/s
11:00 17.2° 1011.1 hPa 2.8 m/s 4.0 mm 18.6° 1008.4 hPa 4.2 m/s 57.9 mm 17.9° 1011.3 hPa 0.8 m/s 0.1 mm 17.0° 1011.1 hPa 2.7 m/s 0.0 mm 18.6° 1011.3 hPa 2.1 m/s
14:00 19.6° 1010.9 hPa 3.3 m/s 0.0 mm 21.4° 1008.3 hPa 4.6 m/s 61.6 mm 19.6° 1011.1 hPa 2.8 m/s 0.1 mm 18.0° 1011.3 hPa 2.8 m/s 0.0 mm 19.7° 1010.9 hPa 1.9 m/s
17:00 20.1° 1010.4 hPa 2.6 m/s 0.0 mm 21.8° 1007.7 hPa 3.9 m/s 61.6 mm 20.3° 1010.5 hPa 1.0 m/s 0.3 mm 18.5° 1010.6 hPa 2.5 m/s 0.0 mm 21.3° 1010.2 hPa 1.0 m/s
20:00 18.2° 1010.9 hPa 1.6 m/s 0.0 mm 19.8° 1007.7 hPa 1.6 m/s 61.6 mm 19.2° 1010.4 hPa 1.2 m/s 0.0 mm 17.9° 1011.3 hPa 1.6 m/s 0.0 mm 19.3° 1010.1 hPa 0.9 m/s
23:00 16.3° 1011.8 hPa 1.3 m/s 0.0 mm 15.6° 1009.1 hPa 3.3 m/s 61.6 mm 16.4° 1011.1 hPa 0.6 m/s 0.0 mm 16.8° 1013.6 hPa 1.4 m/s 0.0 mm 16.0° 1011.2 hPa 1.0 m/s
 06:09     20:46    Daglengte: 14:37 Zaterdag 07 Aug
02:00 15.1° 1010.8 hPa 1.1 m/s 0.0 mm 14.4° 1008.3 hPa 2.7 m/s 61.6 mm 15.2° 1010.7 hPa 0.7 m/s 0.0 mm 16.4° 1012.9 hPa 0.8 m/s 0.0 mm 14.6° 1011.2 hPa 1.4 m/s
05:00 14.1° 1009.7 hPa 1.9 m/s 0.0 mm 14.1° 1007.2 hPa 2.5 m/s 61.6 mm 14.0° 1009.4 hPa 1.2 m/s 0.0 mm 13.8° 1012.4 hPa 1.7 m/s 0.0 mm 13.9° 1010.3 hPa 1.7 m/s
08:00 16.1° 1008.8 hPa 1.6 m/s 0.0 mm 19.1° 1006.5 hPa 2.1 m/s 61.6 mm 16.0° 1008.5 hPa 0.6 m/s 0.0 mm 15.3° 1011.0 hPa 1.4 m/s 0.0 mm 17.2° 1008.3 hPa 1.3 m/s
11:00 21.2° 1006.3 hPa 1.6 m/s 0.0 mm 23.5° 1004.5 hPa 1.6 m/s 61.6 mm 20.5° 1006.2 hPa 1.1 m/s 0.0 mm 23.3° 1005.3 hPa 0.3 m/s
14:00 22.2° 1005.2 hPa 2.6 m/s 0.0 mm 24.3° 1003.0 hPa 2.4 m/s 61.6 mm 22.0° 1005.4 hPa 2.8 m/s 0.0 mm 26.8° 1002.5 hPa 2.2 m/s
17:00 20.8° 1005.1 hPa 2.8 m/s 0.0 mm 17.7° 1004.7 hPa 3.4 m/s 64.3 mm 21.2° 1005.1 hPa 3.0 m/s 0.0 mm 25.9° 1003.4 hPa 2.6 m/s
20:00 16.3° 1006.6 hPa 1.9 m/s 22.6 mm 14.4° 1006.5 hPa 2.2 m/s 116.9 mm 16.8° 1005.6 hPa 2.8 m/s 0.2 mm 17.7° 1008.4 hPa 2.3 m/s
23:00 15.2° 1011.6 hPa 3.4 m/s 53.0 mm 14.8° 1009.3 hPa 5.8 m/s 200.5 mm 15.2° 1011.9 hPa 1.6 m/s 17.1 mm 16.2° 1011.2 hPa 0.6 m/s
 06:10     20:44    Daglengte: 14:34 Zondag 08 Aug
02:00 14.5° 1011.9 hPa 2.8 m/s 51.6 mm 14.6° 1009.7 hPa 3.7 m/s 236.4 mm 14.6° 1012.3 hPa 2.4 m/s 6.4 mm 15.2° 1013.1 hPa 1.6 m/s
05:00 14.0° 1012.5 hPa 2.2 m/s 52.1 mm 14.8° 1009.9 hPa 3.2 m/s 236.7 mm 14.0° 1012.9 hPa 1.4 m/s 2.1 mm 14.0° 1013.5 hPa 2.2 m/s
08:00 14.3° 1014.1 hPa 2.4 m/s 83.3 mm 15.8° 1011.3 hPa 2.8 m/s 237.4 mm 14.4° 1014.4 hPa 0.8 m/s 0.0 mm 13.9° 1014.6 hPa 2.1 m/s
11:00 15.8° 1015.5 hPa 1.4 m/s 0.0 mm 16.1° 1015.4 hPa 1.4 m/s 0.0 mm 14.3° 1016.1 hPa 1.6 m/s 49.9 mm
14:00 16.7° 1015.9 hPa 1.6 m/s 0.0 mm 17.0° 1015.7 hPa 1.6 m/s 0.0 mm 14.3° 1017.4 hPa 1.1 m/s 55.5 mm
17:00 14.6° 1018.8 hPa 2.3 m/s 57.7 mm 14.6° 1018.8 hPa 2.3 m/s 57.7 mm
20:00 15.7° 1019.4 hPa 1.5 m/s 57.8 mm 15.7° 1019.4 hPa 1.5 m/s 57.8 mm
23:00 12.8° 1021.6 hPa 1.6 m/s 57.8 mm 12.8° 1021.6 hPa 1.6 m/s 57.8 mm
 06:12     20:42    Daglengte: 14:30 Maandag 09 Aug
02:00 12.3° 1021.6 hPa 1.7 m/s 57.8 mm 12.3° 1021.6 hPa 1.7 m/s 57.8 mm
05:00 11.8° 1021.1 hPa 2.0 m/s 57.8 mm 11.8° 1021.1 hPa 2.0 m/s 57.8 mm
08:00 14.2° 1021.2 hPa 1.3 m/s 57.8 mm 14.2° 1021.2 hPa 1.3 m/s 57.8 mm
11:00 17.1° 1021.9 hPa 0.6 m/s 57.8 mm 17.1° 1021.9 hPa 0.6 m/s 57.8 mm
14:00 21.2° 1021.5 hPa 1.7 m/s 57.8 mm 21.2° 1021.5 hPa 1.7 m/s 57.8 mm
17:00 21.5° 1021.4 hPa 1.4 m/s 57.9 mm 21.5° 1021.4 hPa 1.4 m/s 57.9 mm
20:00 18.5° 1021.9 hPa 1.1 m/s 57.9 mm 18.5° 1021.9 hPa 1.1 m/s 57.9 mm
23:00 15.6° 1024.0 hPa 1.3 m/s 57.9 mm 15.6° 1024.0 hPa 1.3 m/s 57.9 mm
 06:13     20:41    Daglengte: 14:28 Dinsdag 10 Aug
02:00 13.8° 1024.6 hPa 1.5 m/s 57.9 mm 13.8° 1024.6 hPa 1.5 m/s 57.9 mm
05:00 12.9° 1024.3 hPa 1.5 m/s 57.9 mm 12.9° 1024.3 hPa 1.5 m/s 57.9 mm
08:00 15.7° 1024.1 hPa 1.0 m/s 57.9 mm 15.7° 1024.1 hPa 1.0 m/s 57.9 mm
11:00 20.3° 1023.2 hPa 1.6 m/s 57.9 mm 20.3° 1023.2 hPa 1.6 m/s 57.9 mm
14:00 22.3° 1021.9 hPa 1.7 m/s 57.9 mm 22.3° 1021.9 hPa 1.7 m/s 57.9 mm
17:00 22.6° 1021.1 hPa 1.3 m/s 57.9 mm 22.6° 1021.1 hPa 1.3 m/s 57.9 mm
20:00 19.1° 1020.9 hPa 0.7 m/s 57.9 mm 19.1° 1020.9 hPa 0.7 m/s 57.9 mm
23:00 15.3° 1022.1 hPa 1.6 m/s 57.9 mm 15.3° 1022.1 hPa 1.6 m/s 57.9 mm
 06:14     20:39    Daglengte: 14:25 Woensdag 11 Aug
02:00 14.2° 1021.5 hPa 1.5 m/s 57.9 mm 14.2° 1021.5 hPa 1.5 m/s 57.9 mm
05:00 13.6° 1020.8 hPa 1.1 m/s 57.9 mm 13.6° 1020.8 hPa 1.1 m/s 57.9 mm
08:00 16.6° 1020.3 hPa 0.5 m/s 57.9 mm 16.5° 1020.3 hPa 0.5 m/s 57.9 mm
11:00 22.2° 1018.7 hPa 1.2 m/s 57.9 mm 22.2° 1018.7 hPa 1.2 m/s 57.9 mm
14:00 24.5° 1017.6 hPa 1.6 m/s 57.9 mm 24.5° 1017.6 hPa 1.6 m/s 57.9 mm
17:00 25.2° 1016.5 hPa 1.3 m/s 57.9 mm 25.2° 1016.5 hPa 1.3 m/s 57.9 mm
20:00 21.7° 1017.0 hPa 1.0 m/s 57.9 mm 21.7° 1017.0 hPa 1.0 m/s 57.9 mm
23:00 18.6° 1017.9 hPa 2.4 m/s 57.9 mm 18.6° 1017.9 hPa 2.4 m/s 57.9 mm
 06:16     20:38    Daglengte: 14:22 Donderdag 12 Aug
02:00 18.0° 1017.3 hPa 2.4 m/s 57.9 mm 18.0° 1017.3 hPa 2.4 m/s 57.9 mm
05:00 17.6° 1015.9 hPa 2.3 m/s 57.9 mm 17.6° 1015.9 hPa 2.3 m/s 57.9 mm
08:00 18.5° 1017.0 hPa 1.3 m/s 58.0 mm 18.5° 1017.0 hPa 1.3 m/s 58.0 mm
11:00 21.5° 1018.2 hPa 2.1 m/s 58.8 mm 21.5° 1018.2 hPa 2.1 m/s 58.8 mm
14:00 21.4° 1018.5 hPa 1.7 m/s 59.9 mm 21.4° 1018.5 hPa 1.7 m/s 59.9 mm
20:00 20.2° 1019.5 hPa 2.7 m/s 63.1 mm 20.2° 1019.5 hPa 2.7 m/s 63.1 mm
 06:17     20:36    Daglengte: 14:19 Vrijdag 13 Aug
02:00 16.8° 1022.8 hPa 1.2 m/s 66.9 mm 16.8° 1022.8 hPa 1.2 m/s 66.9 mm
08:00 15.9° 1023.8 hPa 1.3 m/s 67.6 mm 15.9° 1023.8 hPa 1.3 m/s 67.6 mm
14:00 20.9° 1023.1 hPa 1.6 m/s 67.7 mm 20.9° 1023.1 hPa 1.6 m/s 67.7 mm
20:00 17.9° 1023.0 hPa 1.9 m/s 67.7 mm 17.9° 1023.0 hPa 1.9 m/s 67.7 mm
 06:18     20:34    Daglengte: 14:16 Zaterdag 14 Aug
02:00 12.9° 1024.5 hPa 1.3 m/s 67.7 mm 12.9° 1024.5 hPa 1.3 m/s 67.7 mm
08:00 14.4° 1023.4 hPa 0.5 m/s 67.7 mm 14.4° 1023.4 hPa 0.5 m/s 67.7 mm
14:00 23.1° 1020.6 hPa 1.7 m/s 67.7 mm 23.1° 1020.6 hPa 1.7 m/s 67.7 mm
20:00 19.3° 1019.9 hPa 2.1 m/s 67.7 mm 19.3° 1019.9 hPa 2.1 m/s 67.7 mm
 06:20     20:32    Daglengte: 14:12 Zondag 15 Aug
02:00 14.7° 1020.1 hPa 1.3 m/s 67.7 mm 14.7° 1020.1 hPa 1.3 m/s 67.7 mm
08:00 16.6° 1018.2 hPa 0.4 m/s 67.7 mm 16.6° 1018.2 hPa 0.4 m/s 67.7 mm
14:00 23.2° 1015.2 hPa 1.9 m/s 2.1 mm
20:00 18.8° 1015.6 hPa 0.7 m/s 1.4 mm
 06:21     20:31    Daglengte: 14:10 Maandag 16 Aug
02:00 15.5° 1017.0 hPa 0.9 m/s 1.3 mm
08:00 16.2° 1016.9 hPa 0.7 m/s 1.2 mm
14:00 22.8° 1016.1 hPa 1.8 m/s 1.3 mm
20:00 18.6° 1017.1 hPa 0.6 m/s 1.3 mm
 06:22     20:29    Daglengte: 14:07 Dinsdag 17 Aug
02:00 15.0° 1018.9 hPa 1.0 m/s 0.4 mm
08:00 15.9° 1019.1 hPa 0.6 m/s 1.0 mm
14:00 23.3° 1017.8 hPa 1.8 m/s 1.3 mm
20:00 18.5° 1018.5 hPa 0.6 m/s 1.5 mm
 06:24     20:27    Daglengte: 14:03 Woensdag 18 Aug
02:00 15.1° 1019.6 hPa 1.2 m/s 1.3 mm
08:00 16.1° 1019.4 hPa 0.9 m/s 0.8 mm
14:00 23.2° 1017.5 hPa 1.5 m/s 0.7 mm
20:00 18.7° 1017.7 hPa 0.5 m/s 2.1 mm
 06:25     20:25    Daglengte: 14:00 Donderdag 19 Aug
02:00 15.3° 1018.9 hPa 1.2 m/s 2.3 mm
08:00 16.1° 1018.3 hPa 0.9 m/s 0.3 mm
14:00 23.2° 1016.5 hPa 1.9 m/s 1.3 mm
20:00 18.3° 1016.9 hPa 0.2 m/s 1.8 mm
 06:26     20:24    Daglengte: 13:58 Vrijdag 20 Aug
02:00 15.0° 1018.0 hPa 1.3 m/s 1.0 mm
08:00 15.7° 1017.6 hPa 0.8 m/s 1.0 mm
14:00 23.0° 1016.0 hPa 1.7 m/s 1.1 mm
FMI Hirlam - 7.5 km EWN WRFDA - 12 km DWD ICON - 7 km GFS - 25 km Basiskaart






























































Updatetijd (Europe/Brussels) Resolutie Lengte Stap
FMI Hirlam 14:00, 20:00, 02:00, 08:00 7.5 km 49h 1h
EWN WRFDA 04:15, 10:15, 16:15, 22:15 12 km 73h 1h
DWD ICON 11:45, 17:45, 23:45, 05:45 7 km 75h 1h
GFS 14:15, 20:15, 02:15, 08:15 25 km 237h 3h
30+ mm
25-30 mm
20-25 mm
15-20 mm
10-15 mm
6-10 mm
4-6 mm
2-4 mm
1-2 mm
0.5-1 mm
0.2-0.5 mm
0.1-0.2 mm
30+ mm
25-30 mm
20-25 mm
15-20 mm
10-15 mm
6-10 mm
4-6 mm
2-4 mm
1-2 mm
0.5-1 mm
0.2-0.5 mm
0.1-0.2 mm
Sneeuwval
Natte sneeuw
Hagel
Vorst
30+ mm
25-30 mm
20-25 mm
15-20 mm
10-15 mm
6-10 mm
4-6 mm
2-4 mm
1-2 mm
0.5-1 mm
0.2-0.5 mm
0.1-0.2 mm
Sneeuwval
Natte sneeuw
Hagel
Vorst
Onweer
50 mm
40 mm
30 mm
26 mm
22 mm
18 mm
14 mm
10 mm
9 mm
8 mm
7 mm
6 mm
5 mm
4.5 mm
4 mm
3.5 mm
3 mm
2.5 mm
2 mm
1.5 mm
1 mm
0.8 mm
0.6 mm
0.4 mm
0.2 mm
0.05 mm
35°
30°
25°
20°
15°
10°
-5°
-10°
-15°
-20°
-25°
-30°
-35°
33> m/s
29 m/s
25 m/s
21 m/s
17 m/s
14 m/s
11 m/s
8 m/s
5 m/s
3 m/s
0 m/s
2600 J/kg
2400 J/kg
2200 J/kg
2000 J/kg
1800 J/kg
1600 J/kg
1400 J/kg
1200 J/kg
1000 J/kg
800 J/kg
600 J/kg
400 J/kg
200 J/kg
70 dBZ
65 dBZ
60 dBZ
55 dBZ
50 dBZ
45 dBZ
40 dBZ
35 dBZ
30 dBZ
25 dBZ
20 dBZ
15 dBZ
10 dBZ
5 dBZ
-1 K
-2 K
-3 K
-4 K
-5 K
-6 K
-7 K
-8 K
-9 K
950 m²/s²
900 m²/s²
850 m²/s²
800 m²/s²
750 m²/s²
700 m²/s²
650 m²/s²
600 m²/s²
550 m²/s²
500 m²/s²
450 m²/s²
400 m²/s²
350 m²/s²
300 m²/s²
250 m²/s²
200 m²/s²
150 m²/s²
100 m²/s²
46 m/s
44 m/s
42 m/s
40 m/s
38 m/s
36 m/s
34 m/s
32 m/s
30 m/s
28 m/s
26 m/s
24 m/s
22 m/s
20 m/s
16 m/s
12 m/s
8 m/s
4 m/s
30 m/s
28 m/s
26 m/s
24 m/s
22 m/s
20 m/s
18 m/s
16 m/s
14 m/s
12 m/s
10 m/s
8 m/s
6 m/s
4 m/s
2 m/s
3.0
2.8
2.6
2.4
2.2
2.0
1.8
1.6
1.4
1.2
1.0
0.8
0.6
0.4
0.2
15
14
13
12
11
10
9
8
7
6
5
4
3
2
1
90%
80%
70%
60%
50%
40%
30%
20%
10%
42
40
38
36
34
32
30
28
26
24
22
20
18
16
14
12
90+ cm
80-90 cm
70-80 cm
60-70 cm
50-60 cm
40-50 cm
30-40 cm
20-30 cm
10-20 cm